Meteo pe oră la Allanton

Astăzi, 26 Ianuarie, Marţi

Timp Temperatura Precipitaţii Vânt Presiune Umiditate
00:00 -1°C° 0 mm 5 m/s 751 mmHg 93%
01:00 -1°C° 0.2 mm 4 m/s 752 mmHg 94%
02:00 -1°C° 0.2 mm 4 m/s 752 mmHg 94%
03:00 -1°C° 0.2 mm 4 m/s 752 mmHg 94%
04:00 -1°C° 0.1 mm 4 m/s 752 mmHg 93%
05:00 -1°C° 0.1 mm 4 m/s 752 mmHg 92%
06:00 -2°C° 0.1 mm 4 m/s 752 mmHg 91%
07:00 0°C° 0 mm 3 m/s 752 mmHg 91%
08:00 +1°C° 0 mm 2 m/s 752 mmHg 91%
09:00 +1°C° 0 mm 2 m/s 752 mmHg 91%
10:00 +2°C° 0 mm 2 m/s 751 mmHg 89%
11:00 +2°C° 0 mm 2 m/s 751 mmHg 87%
12:00 +3°C° 0 mm 2 m/s 751 mmHg 85%
13:00 +2°C° 0.5 mm 3 m/s 750 mmHg 89%
14:00 +2°C° 0.5 mm 3 m/s 750 mmHg 93%
15:00 0°C° 0.5 mm 4 m/s 749 mmHg 97%
16:00 0°C° 0.5 mm 4 m/s 749 mmHg 97%
17:00 0°C° 0.5 mm 4 m/s 748 mmHg 98%
18:00 0°C° 0.5 mm 5 m/s 748 mmHg 98%
19:00 0°C° 0.1 mm 4 m/s 747 mmHg 98%
20:00 0°C° 0.1 mm 4 m/s 747 mmHg 98%
21:00 +1°C° 0.1 mm 3 m/s 747 mmHg 97%
22:00 +1°C° 0.1 mm 4 m/s 747 mmHg 96%
23:00 +3°C° 0.1 mm 4 m/s 747 mmHg 95%

Mâine, 27 Ianuarie, Miercuri

Timp Temperatura Precipitaţii Vânt Presiune Umiditate
00:00 +3°C° 0.1 mm 5 m/s 747 mmHg 94%
01:00 +4°C° 0 mm 4 m/s 747 mmHg 94%
02:00 +4°C° 0 mm 4 m/s 747 mmHg 94%
03:00 +3°C° 0 mm 4 m/s 747 mmHg 95%
04:00 +3°C° 0.2 mm 4 m/s 747 mmHg 96%
05:00 +3°C° 0.2 mm 3 m/s 748 mmHg 96%
06:00 +3°C° 0.2 mm 3 m/s 748 mmHg 97%
07:00 +3°C° 0.5 mm 3 m/s 749 mmHg 97%
08:00 +1°C° 0.5 mm 4 m/s 749 mmHg 96%
09:00 +1°C° 0.5 mm 4 m/s 750 mmHg 96%
10:00 +1°C° 0.2 mm 4 m/s 751 mmHg 96%
11:00 +1°C° 0.2 mm 4 m/s 752 mmHg 95%
12:00 +1°C° 0.2 mm 4 m/s 752 mmHg 94%
13:00 +1°C° 0 mm 4 m/s 753 mmHg 91%
14:00 +1°C° 0 mm 4 m/s 753 mmHg 89%
15:00 +1°C° 0 mm 4 m/s 753 mmHg 86%
16:00 0°C° 0 mm 4 m/s 753 mmHg 86%
17:00 0°C° 0 mm 3 m/s 754 mmHg 86%
18:00 0°C° 0 mm 3 m/s 754 mmHg 86%
19:00 -1°C° 0 mm 3 m/s 754 mmHg 85%
20:00 -1°C° 0 mm 2 m/s 754 mmHg 84%
21:00 -1°C° 0 mm 2 m/s 754 mmHg 83%
22:00 -1°C° 0 mm 3 m/s 753 mmHg 83%
23:00 0°C° 0 mm 3 m/s 752 mmHg 82%

Poimâine, 28 Ianuarie, Joi

Timp Temperatura Precipitaţii Vânt Presiune Umiditate
00:00 0°C° 0 mm 3 m/s 752 mmHg 82%
01:00 -1°C° 0 mm 4 m/s 751 mmHg 81%
02:00 -1°C° 0 mm 5 m/s 750 mmHg 80%
03:00 0°C° 0 mm 5 m/s 749 mmHg 79%
04:00 -1°C° 0.2 mm 6 m/s 748 mmHg 83%
05:00 -1°C° 0.2 mm 6 m/s 747 mmHg 87%
06:00 -2°C° 0.2 mm 7 m/s 746 mmHg 91%
07:00 -2°C° 0.6 mm 7 m/s 746 mmHg 93%
08:00 -2°C° 0.6 mm 7 m/s 745 mmHg 95%
09:00 -2°C° 0.6 mm 7 m/s 745 mmHg 96%
10:00 -2°C° 0.5 mm 7 m/s 745 mmHg 97%
11:00 -2°C° 0.5 mm 7 m/s 745 mmHg 97%
12:00 -2°C° 0.5 mm 7 m/s 745 mmHg 97%
13:00 -2°C° 0.8 mm 7 m/s 744 mmHg 98%
14:00 -2°C° 0.8 mm 7 m/s 744 mmHg 98%
15:00 -2°C° 0.8 mm 6 m/s 744 mmHg 98%
16:00 -1°C° 0.6 mm 6 m/s 743 mmHg 98%
17:00 -1°C° 0.6 mm 6 m/s 743 mmHg 98%
18:00 -1°C° 0.6 mm 6 m/s 743 mmHg 98%
19:00 -1°C° 0.5 mm 6 m/s 743 mmHg 98%
20:00 +1°C° 0.5 mm 6 m/s 743 mmHg 98%
21:00 +1°C° 0.5 mm 6 m/s 743 mmHg 98%
22:00 +1°C° 0.3 mm 5 m/s 743 mmHg 98%
23:00 +1°C° 0.3 mm 5 m/s 743 mmHg 98%

29 Ianuarie, Vineri

Timp Temperatura Precipitaţii Vânt Presiune Umiditate
00:00 +1°C° 0.3 mm 4 m/s 743 mmHg 98%
01:00 +1°C° 0.2 mm 4 m/s 743 mmHg 98%
02:00 +1°C° 0.2 mm 4 m/s 743 mmHg 98%
03:00 +1°C° 0.2 mm 4 m/s 743 mmHg 98%
04:00 +1°C° 0.5 mm 4 m/s 744 mmHg 98%
05:00 +1°C° 0.5 mm 4 m/s 744 mmHg 98%
06:00 +1°C° 0.5 mm 4 m/s 744 mmHg 98%
07:00 +1°C° 0.7 mm 4 m/s 744 mmHg 98%
08:00 +1°C° 0.7 mm 4 m/s 745 mmHg 98%
09:00 +2°C° 0.7 mm 3 m/s 745 mmHg 98%
10:00 +2°C° 0.3 mm 3 m/s 745 mmHg 98%
11:00 +2°C° 0.3 mm 3 m/s 746 mmHg 98%
12:00 +2°C° 0.3 mm 3 m/s 746 mmHg 98%
13:00 +3°C° 0.1 mm 2 m/s 746 mmHg 98%
14:00 +3°C° 0.1 mm 2 m/s 747 mmHg 98%
15:00 +3°C° 0.1 mm 2 m/s 747 mmHg 98%
16:00 +3°C° 0.1 mm 2 m/s 747 mmHg 98%
17:00 +4°C° 0.1 mm 1 m/s 748 mmHg 98%
18:00 +4°C° 0.1 mm 1 m/s 748 mmHg 98%
19:00 +3°C° 0.1 mm 2 m/s 748 mmHg 97%
20:00 +3°C° 0.1 mm 2 m/s 748 mmHg 97%
21:00 +3°C° 0.1 mm 2 m/s 748 mmHg 97%
22:00 +2°C° 0 mm 2 m/s 749 mmHg 97%
23:00 +2°C° 0 mm 2 m/s 749 mmHg 96%

30 Ianuarie, Sâmbătă

Timp Temperatura Precipitaţii Vânt Presiune Umiditate
00:00 +2°C° 0 mm 2 m/s 749 mmHg 96%
01:00 +2°C° 0 mm 2 m/s 749 mmHg 96%
02:00 +2°C° 0 mm 2 m/s 749 mmHg 96%
03:00 +2°C° 0 mm 2 m/s 749 mmHg 96%
04:00 +2°C° 0 mm 2 m/s 749 mmHg 96%
05:00 +2°C° 0 mm 2 m/s 749 mmHg 96%
06:00 +2°C° 0 mm 2 m/s 749 mmHg 96%
07:00 +2°C° 0 mm 2 m/s 749 mmHg 96%
08:00 +3°C° 0 mm 2 m/s 749 mmHg 96%
09:00 +3°C° 0 mm 2 m/s 749 mmHg 96%
10:00 +3°C° 0 mm 2 m/s 749 mmHg 96%
11:00 +3°C° 0 mm 2 m/s 749 mmHg 95%
12:00 +4°C° 0 mm 2 m/s 749 mmHg 95%
13:00 +4°C° 0 mm 2 m/s 749 mmHg 95%
14:00 +4°C° 0 mm 2 m/s 749 mmHg 95%
15:00 +4°C° 0 mm 2 m/s 749 mmHg 95%
16:00 +3°C° 0 mm 2 m/s 748 mmHg 95%
17:00 +3°C° 0 mm 2 m/s 748 mmHg 95%
18:00 +2°C° 0 mm 2 m/s 748 mmHg 95%
19:00 +1°C° 0 mm 3 m/s 748 mmHg 95%
20:00 +1°C° 0 mm 3 m/s 747 mmHg 96%
21:00 +1°C° 0 mm 3 m/s 747 mmHg 96%
22:00 0°C° 0 mm 4 m/s 746 mmHg 96%
23:00 0°C° 0 mm 4 m/s 745 mmHg 96%

31 Ianuarie, Duminică

Timp Temperatura Precipitaţii Vânt Presiune Umiditate
00:00 +1°C° 0 mm 5 m/s 745 mmHg 96%
01:00 +1°C° 0 mm 6 m/s 743 mmHg 95%
02:00 0°C° 0 mm 7 m/s 742 mmHg 95%
03:00 0°C° 0 mm 8 m/s 741 mmHg 95%
04:00 0°C° 0.4 mm 9 m/s 740 mmHg 95%
05:00 0°C° 0.4 mm 9 m/s 738 mmHg 95%
06:00 0°C° 0.4 mm 10 m/s 737 mmHg 96%
07:00 +1°C° 0.7 mm 11 m/s 736 mmHg 96%
08:00 +1°C° 0.7 mm 11 m/s 735 mmHg 96%
09:00 +1°C° 0.7 mm 11 m/s 734 mmHg 96%
10:00 0°C° 1.2 mm 12 m/s 733 mmHg 95%
11:00 +2°C° 1.2 mm 12 m/s 733 mmHg 94%
12:00 +2°C° 1.2 mm 12 m/s 732 mmHg 94%
13:00 +2°C° 0.8 mm 12 m/s 732 mmHg 94%
14:00 +2°C° 0.8 mm 11 m/s 731 mmHg 94%
15:00 +2°C° 0.8 mm 11 m/s 731 mmHg 94%
16:00 +3°C° 0.5 mm 11 m/s 731 mmHg 94%
17:00 +3°C° 0.5 mm 11 m/s 732 mmHg 94%
18:00 +3°C° 0.5 mm 11 m/s 732 mmHg 94%
19:00 +3°C° 0.6 mm 10 m/s 732 mmHg 94%
20:00 +3°C° 0.6 mm 10 m/s 732 mmHg 94%
21:00 +3°C° 0.6 mm 10 m/s 733 mmHg 94%
22:00 +3°C° 0.8 mm 9 m/s 733 mmHg 95%
23:00 +3°C° 0.8 mm 9 m/s 733 mmHg 95%
Arată mai mult

Formular de consimțământ

Meteoprog și furnizorii noștri de servicii pot stoca și accesa date personale, precum cookies, identificatori de dispozitiv sau alte tehnologii similare pe dispozitivul dumneavoastră și procesa astfel de date pentru a personaliza conținutul și reclamele, dar și pentru a oferi caracteristici de social media și pentru a analiza traficul.

  • Stocarea și/sau accesarea informațiilor pe dispozitivul dumneavoastră

    Cookies, identificatori de dispozitiv sau alte informații pot fi stocate sau accesate pe dispozitiv în scopurile indicate mai sus.

  • Reclame și conținut personalizat, evaluarea reclamelor și a conținutului, informații despre audiențe și dezvoltarea produselor

    Reclamele și conținutul pot fi personalizate pe baza unui profil. Pot fi adăugate date suplimentare pentru a personaliza mai bine reclamele și conținutul. Performanța reclamelor și conținutului poate fi măsurată. Pot fi obținute informații despre utilizatorii care au văzut reclamele și conținutul. Aceste date pot fi utilizate pentru a dezvolta sau îmbunătăți experiența utilizatorilor, sistemele și software-ul.

Dând clic pe ‘Sunt de acord’, permiteți utilizarea cookie-urilor menționate, a identificatorilor de dispozitiv, balizelor web sau altor tehnologii similare. Setările pot fi modificate din browser-ul dispozitivului dumneavoastră.

În anumite scopuri, interesele legitime pot prima asupra consimțământului. Puteți citi mai multe informații în acest sens în Politica privind Confidențialitatea Datelor și Cookie.